Miscellaneous Local Product
Issued by NWS North Platte, NE

Home | Current Version | Previous Version | Text Only | Print | Product List | Glossary On
Versions: 1 2 3 4 5 6 7 8 9 10 11 12 13 14 15 16 17 18 19 20 21 22 23 24 25 26 27 28 29 30 31 32 33 34 35 36 37 38 39 40 41 42 43 44 45 46 47 48 49 50
000
AXUS43 KLBF 230410
MISLBF


WESTERN AND NORTH CENTRAL NEBRASKA HOURLY WEATHER ROUNDUP
NATIONAL WEATHER SERVICE NORTH PLATTE NE
1100 PM CDT THU JUN 22 2017

NOTE: "FAIR" INDICATES FEW OR NO CLOUDS BELOW 12,000 FEET WITH NO
SIGNIFICANT WEATHER AND/OR OBSTRUCTIONS TO VISIBILITY.

NOTE: STATIONS NOT REPORTING VARIABLES SUCH AS SKY/WEATHER OR
PRESSURE ARE PROVIDED BY RAWS AND APRS NETWORKS AND ARE NOT UNDER
NATIONAL WEATHER SERVICE QUALITY CONTROL.

...OBSERVATIONS IN AND NEAR THE EASTERN PANHANDLE OF NEBRASKA...

CITY           SKY/WX    TMP DP  RH WIND       PRES   REMARKS
PINE RIDGE     CLOUDY    61  49  64 CALM      30.02R
GORDON         CLOUDY    59  46  61 W3        30.03R
CHADRON        CLOUDY    64  46  52 CALM      30.02R
ALLIANCE       CLOUDY    65  46  50 NE14      30.00R
SIDNEY         CLOUDY    65  53  65 E8        30.01R
CRESCENT LAKE    N/A     66  51  58 NE9         N/A
$$

...OBSERVATIONS IN NORTHERN NEBRASKA AND FAR SOUTHERN SOUTH DAKOTA...

CITY           SKY/WX    TMP DP  RH WIND       PRES   REMARKS
WINNER         FAIR      66  45  46 CALM      29.92R
VALENTINE      CLEAR     66  44  45 NE5       29.94S
THEDFORD       CLOUDY    64  50  60 CALM      29.96S
AINSWORTH      CLEAR     61  50  67 NE7       29.94F
O`NEILL        CLEAR     63  53  69 N8        29.92R
ORD            CLOUDY    67  52  58 N9        29.89R
BROKEN BOW     CLOUDY    65  52  62 N14       29.91R
VALENTINE NWR    N/A     66  49  54 N3          N/A
HALSEY           N/A     64  48  57 CALM        N/A
CHAMBERS         N/A     63  51  64 CALM        N/A
EWING            N/A     65  55  69 CALM        N/A
$$

...OBSERVATIONS IN SOUTHWEST NEBRASKA AND FAR NORTHEAST COLORADO...

CITY           SKY/WX    TMP DP  RH WIND       PRES   REMARKS
WRAY           FAIR      70  54  56 NE14      29.95R
IMPERIAL       CLOUDY    69  52  54 NE10      29.94R
OGALLALA       PTCLDY    70  48  45 NE10      29.95R
NORTH PLATTE   CLEAR     67  48  50 N8        29.93R
MCCOOK         CLOUDY    72  58  61 N16       29.88R
LEXINGTON      PTCLDY    69  53  57 N13       29.91R
GOTHENBURG       N/A     71  49  45 N8          N/A
CALLAWAY         N/A     67  49  53 N12         N/A
$$

...OBSERVATIONS IN CENTRAL LINCOLN COUNTY AREA...

CITY           SKY/WX    TMP DP  RH WIND       PRES   REMARKS
N.P. AIRPORT   CLEAR     67  48  50 N8        29.93R
N.P. DOWNTOWN    N/A     68  50  52 NE3         N/A
N.P. SOUTHEAST   N/A     67  49  52 N3          N/A
N.P. HILLCREST   N/A     66  49  55 NE13        N/A
$$

...SOME OBSERVATIONS FROM AROUND THE REGION...

CITY           SKY/WX    TMP DP  RH WIND       PRES   REMARKS
DENVER         CLOUDY    67  52  58 SE10      30.01R
LIMON          PTCLDY    69  55  60 E7        30.04R
ASPEN          CLOUDY    58  38  47 SW12      30.17R
LARAMIE        CLEAR     58  38  47 NE8       30.15R
CASPER         CLOUDY    62  29  28 N21G28    30.15R
CHEYENNE       CLOUDY    65  51  60 E12       30.09R
SCOTTSBLUFF    CLOUDY    70  47  43 NE13      30.01R
GRAND ISLAND   CLEAR     70  63  78 N14       29.85R
OMAHA          MOCLDY    78  66  66 N16       29.73R
SIOUX FALLS    CLEAR     60  52  74 NW5       29.84S
PIERRE         PTCLDY    62  42  47 NW12      29.90R
RAPID CITY     PTCLDY    64  34  32 N17       30.04R
BISMARCK       PTCLDY    62  45  53 NW17G25   29.90R
KANSAS CITY    PTCLDY    76  72  87 SE6       29.70S
HILL CITY      CLOUDY    78  62  57 NE17G25   29.83R
WICHITA        PTCLDY    79  71  76 S9        29.71R
DODGE CITY     CLOUDY    71  64  78 NE6       29.79F
OKLAHOMA CITY  PTCLDY    76  69  79 S5        29.70R
DALLAS         MOCLDY    82  73  74 SE5       29.67R
AMARILLO       CLOUDY    84  56  38 SE9       29.81F
$$




USA.gov is the U.S. government's official web portal to all federal, state and local government web resources and services.